This is the latest recevied weather packets stored in our database for station/object K3JSE-2. If no packets are shown the sender has not sent any weather packets the latest 1 day(s).
| Time | Temp. | Humidity | Pressure | Rain* | Wind** | Luminosity | Snow |
|---|---|---|---|---|---|---|---|
| 1777995288 | 25° C | 43% | 1010.8 hPa | 0 mm | 1.34 m/s, 264° | - | - |
| 1777995048 | 25° C | 42% | 1010.8 hPa | 0 mm | 1.34 m/s, 196° | - | - |
| 1777994798 | 24.44° C | 45% | 1010.8 hPa | 0 mm | 0 m/s | - | - |
| 1777994780 | 24.44° C | 46% | 1010.8 hPa | 0 mm | 0.89 m/s, 355° | - | - |
| 1777994548 | 24.44° C | 42% | 1010.8 hPa | 0 mm | 0.45 m/s, 264° | - | - |
| 1777994258 | 24.44° C | 43% | 1010.9 hPa | 0 mm | 1.79 m/s, 298° | - | - |
| 1777994003 | 24.44° C | 44% | 1010.9 hPa | 0 mm | 0.45 m/s, 271° | - | - |
| 1777993998 | 24.44° C | 44% | 1010.9 hPa | 0 mm | 0.89 m/s, 271° | - | - |
| 1777993708 | 24.44° C | 43% | 1010.9 hPa | 0 mm | 0 m/s | - | - |
| 1777993438 | 24.44° C | 48% | 1011 hPa | 0 mm | 1.34 m/s, 248° | - | - |
| 1777993349 | 24.44° C | 45% | 1011 hPa | 0 mm | 0.45 m/s, 254° | - | - |
| 1777993188 | 23.89° C | 44% | 1010.9 hPa | 0 mm | 0.45 m/s, 276° | - | - |
| 1777992898 | 23.89° C | 47% | 1010.9 hPa | 0 mm | 0.89 m/s, 244° | - | - |
| 1777992642 | 23.89° C | 44% | 1010.9 hPa | 0 mm | 0.45 m/s, 304° | - | - |
| 1777992604 | 23.89° C | 44% | 1010.9 hPa | 0 mm | 0 m/s | - | - |
| 1777992328 | 23.89° C | 43% | 1010.9 hPa | 0 mm | 0.89 m/s, 49° | - | - |
| 1777992068 | 23.89° C | 47% | 1010.9 hPa | 0 mm | 0 m/s | - | - |
| 1777991867 | 23.89° C | 47% | 1010.9 hPa | 0 mm | 0.89 m/s, 269° | - | - |
| 1777991801 | 23.33° C | 45% | 1010.8 hPa | 0 mm | 0 m/s | - | - |
| 1777991553 | 23.33° C | 46% | 1010.8 hPa | 0 mm | 0.89 m/s, 246° | - | - |
| 1777991283 | 23.33° C | 49% | 1010.8 hPa | 0 mm | 1.34 m/s, 280° | - | - |
| 1777991123 | 23.33° C | 45% | 1010.8 hPa | 0 mm | 0.89 m/s, 273° | - | - |
| 1777991017 | 22.78° C | 47% | 1010.8 hPa | 0 mm | 0.45 m/s, 261° | - | - |
| 1777990768 | 22.78° C | 50% | 1010.9 hPa | 0 mm | 0.89 m/s, 261° | - | - |
| 1777990484 | 22.78° C | 47% | 1011 hPa | 0 mm | 1.34 m/s, 244° | - | - |
* Rain latest hour (hover to see other rain measurements)
** Current wind speed in m/s (hover to see current wind gust speed)